contact:dominique.lefevre@mio.osupytheas.fr, maurice.libes@osupytheas.fr, didier.mallarino@osupytheas.fr
Project:EMSO http://www.emso-fr.org/EMSO-France
Depth: 2436.0 m
Title:EMSO Ligure Ouest : Data MII capteur CSTAR
DateTime,Latitude,Longitude,Instrument_Serial,Reference_Counts,Signal_Counts,Corrected_Signal_raw_counts,Calculated_Beam_c_inverse_meters,Internal_thermistor_counts
DateTime,Latitude,Longitude,Instrument_Serial,Reference_Counts,Signal_Counts,Corrected_Signal_raw_counts,Calculated_Beam_c_inverse_meters,Internal_thermistor_counts
2021-09-10T00:02:22,42.805,6.029,CST-1368DR,5235,7167,14665,0.251,551
2021-09-10T00:05:24,42.805,6.029,CST-1368DR,5235,7166,14663,0.252,551
2021-09-10T00:08:26,42.805,6.029,CST-1368DR,5235,7167,14664,0.252,551
2021-09-10T00:11:27,42.805,6.029,CST-1368DR,5235,7166,14663,0.252,551
2021-09-10T00:14:29,42.805,6.029,CST-1368DR,5235,7167,14665,0.251,551
2021-09-10T00:17:30,42.805,6.029,CST-1368DR,5235,7167,14664,0.252,551
2021-09-10T00:20:32,42.805,6.029,CST-1368DR,5235,7166,14662,0.252,551
2021-09-10T00:23:33,42.805,6.029,CST-1368DR,5235,7166,14663,0.252,551
2021-09-10T00:26:35,42.805,6.029,CST-1368DR,5235,7166,14663,0.252,551
2021-09-10T00:29:37,42.805,6.029,CST-1368DR,5235,7166,14663,0.252,551
2021-09-10T00:32:38,42.805,6.029,CST-1368DR,5235,7166,14663,0.252,551
2021-09-10T00:35:40,42.805,6.029,CST-1368DR,5235,7166,14663,0.252,551
2021-09-10T00:38:41,42.805,6.029,CST-1368DR,5235,7166,14663,0.252,551
2021-09-10T00:41:43,42.805,6.029,CST-1368DR,5235,7166,14663,0.252,551
2021-09-10T00:44:44,42.805,6.029,CST-1368DR,5235,7165,14660,0.253,551
2021-09-10T00:47:46,42.805,6.029,CST-1368DR,5235,7167,14665,0.251,551
2021-09-10T00:50:48,42.805,6.029,CST-1368DR,5235,7166,14662,0.252,551
2021-09-10T00:53:49,42.805,6.029,CST-1368DR,5235,7167,14664,0.252,551
2021-09-10T00:56:51,42.805,6.029,CST-1368DR,5235,7167,14664,0.252,551
2021-09-10T00:59:52,42.805,6.029,CST-1368DR,5235,7166,14663,0.252,551
2021-09-10T01:02:54,42.805,6.029,CST-1368DR,5235,7165,14661,0.252,550
2021-09-10T01:05:56,42.805,6.029,CST-1368DR,5235,7167,14664,0.252,551
2021-09-10T01:08:57,42.805,6.029,CST-1368DR,5235,7166,14663,0.252,551
2021-09-10T01:11:59,42.805,6.029,CST-1368DR,5235,7167,14664,0.252,551
2021-09-10T01:15:00,42.805,6.029,CST-1368DR,5235,7166,14663,0.252,551
2021-09-10T01:18:02,42.805,6.029,CST-1368DR,5235,7166,14663,0.252,551
2021-09-10T01:21:03,42.805,6.029,CST-1368DR,5235,7166,14663,0.252,551
2021-09-10T01:24:05,42.805,6.029,CST-1368DR,5235,7166,14663,0.252,551
2021-09-10T01:27:07,42.805,6.029,CST-1368DR,5235,7164,14659,0.253,551
2021-09-10T01:30:08,42.805,6.029,CST-1368DR,5235,7167,14665,0.251,551
2021-09-10T01:33:10,42.805,6.029,CST-1368DR,5235,7166,14662,0.252,551
2021-09-10T01:36:11,42.805,6.029,CST-1368DR,5235,7165,14661,0.252,551
2021-09-10T01:39:13,42.805,6.029,CST-1368DR,5235,7167,14664,0.252,551
2021-09-10T01:42:15,42.805,6.029,CST-1368DR,5235,7167,14665,0.251,551
2021-09-10T01:45:16,42.805,6.029,CST-1368DR,5235,7167,14664,0.252,551
2021-09-10T01:48:18,42.805,6.029,CST-1368DR,5235,7167,14664,0.252,551
2021-09-10T01:51:19,42.805,6.029,CST-1368DR,5235,7166,14662,0.252,551
2021-09-10T01:54:21,42.805,6.029,CST-1368DR,5235,7166,14663,0.252,551
2021-09-10T01:57:22,42.805,6.029,CST-1368DR,5235,7166,14662,0.252,551
2021-09-10T02:00:24,42.805,6.029,CST-1368DR,5234,7167,14666,0.251,551
2021-09-10T02:03:26,42.805,6.029,CST-1368DR,5235,7166,14663,0.252,551
2021-09-10T02:06:27,42.805,6.029,CST-1368DR,5235,7166,14663,0.252,551
2021-09-10T02:09:29,42.805,6.029,CST-1368DR,5235,7166,14663,0.252,551
2021-09-10T02:12:30,42.805,6.029,CST-1368DR,5235,7167,14664,0.252,551
2021-09-10T02:15:32,42.805,6.029,CST-1368DR,5235,7167,14664,0.252,551
2021-09-10T02:18:33,42.805,6.029,CST-1368DR,5235,7166,14663,0.252,551
2021-09-10T02:21:35,42.805,6.029,CST-1368DR,5235,7165,14661,0.252,551
2021-09-10T02:24:37,42.805,6.029,CST-1368DR,5234,7166,14665,0.251,551
2021-09-10T02:27:38,42.805,6.029,CST-1368DR,5234,7165,14664,0.252,551
2021-09-10T02:30:40,42.805,6.029,CST-1368DR,5235,7166,14662,0.252,551
2021-09-10T02:33:41,42.805,6.029,CST-1368DR,5234,7166,14664,0.252,551
2021-09-10T02:36:43,42.805,6.029,CST-1368DR,5235,7166,14663,0.252,551
2021-09-10T02:39:45,42.805,6.029,CST-1368DR,5235,7165,14661,0.252,551
2021-09-10T02:42:46,42.805,6.029,CST-1368DR,5235,7166,14662,0.252,551
2021-09-10T02:45:48,42.805,6.029,CST-1368DR,5235,7166,14662,0.252,551
2021-09-10T02:48:49,42.805,6.029,CST-1368DR,5235,7166,14663,0.252,551
2021-09-10T02:51:51,42.805,6.029,CST-1368DR,5235,7166,14663,0.252,551
2021-09-10T02:54:52,42.805,6.029,CST-1368DR,5234,7166,14666,0.251,551
2021-09-10T02:57:54,42.805,6.029,CST-1368DR,5235,7166,14663,0.252,551
2021-09-10T03:00:56,42.805,6.029,CST-1368DR,5235,7165,14661,0.252,551
2021-09-10T03:03:57,42.805,6.029,CST-1368DR,5234,7165,14663,0.252,551
2021-09-10T03:06:59,42.805,6.029,CST-1368DR,5235,7166,14662,0.252,551
2021-09-10T03:10:00,42.805,6.029,CST-1368DR,5235,7165,14661,0.252,551
2021-09-10T03:13:02,42.805,6.029,CST-1368DR,5234,7164,14662,0.252,551
2021-09-10T03:16:03,42.805,6.029,CST-1368DR,5234,7166,14664,0.252,551
2021-09-10T03:19:05,42.805,6.029,CST-1368DR,5234,7166,14664,0.252,551
2021-09-10T03:22:07,42.805,6.029,CST-1368DR,5235,7167,14664,0.252,551
2021-09-10T03:25:08,42.805,6.029,CST-1368DR,5234,7167,14667,0.251,551
2021-09-10T03:28:10,42.805,6.029,CST-1368DR,5235,7166,14663,0.252,551
2021-09-10T03:31:11,42.805,6.029,CST-1368DR,5235,7167,14664,0.252,551
2021-09-10T03:34:13,42.805,6.029,CST-1368DR,5235,7165,14660,0.253,551
2021-09-10T03:37:15,42.805,6.029,CST-1368DR,5234,7166,14665,0.251,550
2021-09-10T03:40:16,42.805,6.029,CST-1368DR,5234,7167,14668,0.251,551
2021-09-10T03:43:18,42.805,6.029,CST-1368DR,5234,7166,14665,0.251,551
2021-09-10T03:46:19,42.805,6.029,CST-1368DR,5235,7165,14660,0.253,551
2021-09-10T03:49:21,42.805,6.029,CST-1368DR,5235,7166,14662,0.252,551
2021-09-10T03:52:22,42.805,6.029,CST-1368DR,5234,7167,14666,0.251,551
2021-09-10T03:55:24,42.805,6.029,CST-1368DR,5234,7166,14665,0.251,551
2021-09-10T03:58:26,42.805,6.029,CST-1368DR,5235,7166,14662,0.252,551
2021-09-10T04:01:27,42.805,6.029,CST-1368DR,5234,7166,14666,0.251,551
2021-09-10T04:04:29,42.805,6.029,CST-1368DR,5235,7166,14662,0.252,551
2021-09-10T04:07:30,42.805,6.029,CST-1368DR,5234,7165,14664,0.252,551
2021-09-10T04:10:32,42.805,6.029,CST-1368DR,5234,7166,14665,0.251,551
2021-09-10T04:13:34,42.805,6.029,CST-1368DR,5234,7164,14661,0.252,551
2021-09-10T04:16:35,42.805,6.029,CST-1368DR,5234,7166,14665,0.251,551
2021-09-10T04:19:37,42.805,6.029,CST-1368DR,5234,7166,14665,0.251,551
2021-09-10T04:22:38,42.805,6.029,CST-1368DR,5234,7165,14663,0.252,551
2021-09-10T04:25:40,42.805,6.029,CST-1368DR,5234,7166,14664,0.252,551
2021-09-10T04:28:41,42.805,6.029,CST-1368DR,5234,7166,14665,0.251,551
2021-09-10T04:31:43,42.805,6.029,CST-1368DR,5234,7165,14663,0.252,551
2021-09-10T04:34:45,42.805,6.029,CST-1368DR,5234,7164,14660,0.253,551
2021-09-10T04:37:46,42.805,6.029,CST-1368DR,5234,7164,14661,0.252,550
2021-09-10T04:40:48,42.805,6.029,CST-1368DR,5234,7165,14663,0.252,551
2021-09-10T04:43:49,42.805,6.029,CST-1368DR,5234,7163,14658,0.253,551
2021-09-10T04:46:51,42.805,6.029,CST-1368DR,5234,7164,14662,0.252,551
2021-09-10T04:49:52,42.805,6.029,CST-1368DR,5234,7165,14663,0.252,551
2021-09-10T04:52:54,42.805,6.029,CST-1368DR,5234,7164,14661,0.252,551
2021-09-10T04:55:56,42.805,6.029,CST-1368DR,5234,7163,14658,0.253,551
2021-09-10T04:58:57,42.805,6.029,CST-1368DR,5234,7164,14661,0.252,551
2021-09-10T05:01:59,42.805,6.029,CST-1368DR,5234,7164,14661,0.252,551
2021-09-10T05:05:00,42.805,6.029,CST-1368DR,5234,7162,14657,0.254,551
2021-09-10T05:08:02,42.805,6.029,CST-1368DR,5234,7165,14663,0.252,551
2021-09-10T05:11:04,42.805,6.029,CST-1368DR,5234,7164,14662,0.252,551
2021-09-10T05:14:05,42.805,6.029,CST-1368DR,5234,7164,14661,0.252,551
2021-09-10T05:17:07,42.805,6.029,CST-1368DR,5234,7164,14661,0.252,551
2021-09-10T05:20:08,42.805,6.029,CST-1368DR,5234,7163,14658,0.253,551
2021-09-10T05:23:10,42.805,6.029,CST-1368DR,5234,7164,14661,0.252,551
2021-09-10T05:26:11,42.805,6.029,CST-1368DR,5234,7164,14661,0.252,551
2021-09-10T05:29:13,42.805,6.029,CST-1368DR,5234,7163,14660,0.253,551
2021-09-10T05:32:15,42.805,6.029,CST-1368DR,5234,7163,14659,0.253,550
2021-09-10T05:35:16,42.805,6.029,CST-1368DR,5234,7162,14658,0.253,551
2021-09-10T05:38:18,42.805,6.029,CST-1368DR,5234,7163,14659,0.253,551
2021-09-10T05:41:19,42.805,6.029,CST-1368DR,5234,7163,14659,0.253,551
2021-09-10T05:44:21,42.805,6.029,CST-1368DR,5234,7163,14658,0.253,551
2021-09-10T05:47:22,42.805,6.029,CST-1368DR,5234,7158,14649,0.256,551
2021-09-10T05:50:24,42.805,6.029,CST-1368DR,5234,7162,14657,0.254,551
2021-09-10T05:53:26,42.805,6.029,CST-1368DR,5234,7162,14657,0.254,551
2021-09-10T05:56:27,42.805,6.029,CST-1368DR,5234,7161,14656,0.254,551
2021-09-10T05:59:29,42.805,6.029,CST-1368DR,5234,7162,14657,0.254,551
2021-09-10T06:02:30,42.805,6.029,CST-1368DR,5234,7162,14658,0.253,551
2021-09-10T06:05:32,42.805,6.029,CST-1368DR,5234,7163,14659,0.253,551
2021-09-10T06:08:34,42.805,6.029,CST-1368DR,5234,7163,14658,0.253,551
2021-09-10T06:11:35,42.805,6.029,CST-1368DR,5234,7161,14654,0.254,551
2021-09-10T06:14:37,42.805,6.029,CST-1368DR,5234,7162,14656,0.254,551
2021-09-10T06:17:38,42.805,6.029,CST-1368DR,5234,7162,14658,0.253,551
2021-09-10T06:20:40,42.805,6.029,CST-1368DR,5234,7161,14656,0.254,551
2021-09-10T06:23:41,42.805,6.029,CST-1368DR,5234,7162,14658,0.253,551
2021-09-10T06:26:43,42.805,6.029,CST-1368DR,5234,7162,14657,0.254,551
2021-09-10T06:29:45,42.805,6.029,CST-1368DR,5234,7163,14658,0.253,551
2021-09-10T06:32:46,42.805,6.029,CST-1368DR,5234,7161,14656,0.254,551
2021-09-10T06:35:48,42.805,6.029,CST-1368DR,5234,7162,14657,0.254,551
2021-09-10T06:38:49,42.805,6.029,CST-1368DR,5234,7162,14657,0.254,551
2021-09-10T06:41:51,42.805,6.029,CST-1368DR,5234,7161,14655,0.254,551
2021-09-10T06:44:52,42.805,6.029,CST-1368DR,5234,7161,14655,0.254,551
2021-09-10T06:47:54,42.805,6.029,CST-1368DR,5234,7162,14656,0.254,551
2021-09-10T06:50:56,42.805,6.029,CST-1368DR,5234,7161,14654,0.254,551
2021-09-10T06:53:57,42.805,6.029,CST-1368DR,5234,7161,14656,0.254,551
2021-09-10T06:56:59,42.805,6.029,CST-1368DR,5234,7162,14657,0.254,551
2021-09-10T07:00:00,42.805,6.029,CST-1368DR,5234,7162,14656,0.254,551
2021-09-10T07:03:02,42.805,6.029,CST-1368DR,5234,7162,14656,0.254,551
2021-09-10T07:06:04,42.805,6.029,CST-1368DR,5234,7162,14656,0.254,551
2021-09-10T07:09:05,42.805,6.029,CST-1368DR,5234,7162,14657,0.254,551
2021-09-10T07:12:07,42.805,6.029,CST-1368DR,5234,7162,14657,0.254,551
2021-09-10T07:15:08,42.805,6.029,CST-1368DR,5234,7162,14657,0.254,551
2021-09-10T07:18:10,42.805,6.029,CST-1368DR,5234,7160,14653,0.255,551
2021-09-10T07:21:11,42.805,6.029,CST-1368DR,5234,7162,14657,0.254,551
2021-09-10T07:24:13,42.805,6.029,CST-1368DR,5234,7162,14656,0.254,551
2021-09-10T07:27:15,42.805,6.029,CST-1368DR,5234,7160,14653,0.255,551
2021-09-10T07:30:16,42.805,6.029,CST-1368DR,5234,7162,14657,0.254,551
2021-09-10T07:33:18,42.805,6.029,CST-1368DR,5234,7160,14654,0.254,551
2021-09-10T07:36:19,42.805,6.029,CST-1368DR,5234,7161,14656,0.254,551
2021-09-10T07:39:21,42.805,6.029,CST-1368DR,5234,7162,14656,0.254,551
2021-09-10T07:42:23,42.805,6.029,CST-1368DR,5234,7161,14655,0.254,551
2021-09-10T07:45:24,42.805,6.029,CST-1368DR,5234,7162,14657,0.254,551
2021-09-10T07:48:26,42.805,6.029,CST-1368DR,5234,7161,14654,0.254,551
2021-09-10T07:51:27,42.805,6.029,CST-1368DR,5234,7162,14656,0.254,551
2021-09-10T07:54:29,42.805,6.029,CST-1368DR,5234,7161,14656,0.254,551
2021-09-10T07:57:30,42.805,6.029,CST-1368DR,5234,7160,14653,0.255,551
2021-09-10T08:00:32,42.805,6.029,CST-1368DR,5234,7162,14657,0.254,551
2021-09-10T08:03:34,42.805,6.029,CST-1368DR,5234,7161,14654,0.254,551
2021-09-10T08:06:35,42.805,6.029,CST-1368DR,5234,7161,14656,0.254,551
2021-09-10T08:09:37,42.805,6.029,CST-1368DR,5234,7162,14657,0.254,551
2021-09-10T08:12:38,42.805,6.029,CST-1368DR,5234,7162,14657,0.254,551
2021-09-10T08:15:40,42.805,6.029,CST-1368DR,5234,7161,14656,0.254,551
2021-09-10T08:18:41,42.805,6.029,CST-1368DR,5234,7161,14654,0.254,551
2021-09-10T08:21:43,42.805,6.029,CST-1368DR,5234,7160,14653,0.255,551
2021-09-10T08:24:45,42.805,6.029,CST-1368DR,5234,7161,14654,0.254,551
2021-09-10T08:27:46,42.805,6.029,CST-1368DR,5234,7160,14653,0.255,551
2021-09-10T08:30:48,42.805,6.029,CST-1368DR,5234,7162,14657,0.254,551
2021-09-10T08:33:49,42.805,6.029,CST-1368DR,5234,7161,14655,0.254,551
2021-09-10T08:36:51,42.805,6.029,CST-1368DR,5234,7162,14657,0.254,551
2021-09-10T08:39:53,42.805,6.029,CST-1368DR,5234,7160,14654,0.254,551
2021-09-10T08:42:54,42.805,6.029,CST-1368DR,5234,7161,14654,0.254,551
2021-09-10T08:45:56,42.805,6.029,CST-1368DR,5234,7161,14656,0.254,551
2021-09-10T08:48:57,42.805,6.029,CST-1368DR,5234,7162,14656,0.254,551
2021-09-10T08:51:59,42.805,6.029,CST-1368DR,5234,7161,14655,0.254,551
2021-09-10T08:55:00,42.805,6.029,CST-1368DR,5234,7162,14656,0.254,551
2021-09-10T08:58:02,42.805,6.029,CST-1368DR,5234,7162,14656,0.254,551
2021-09-10T09:01:04,42.805,6.029,CST-1368DR,5234,7162,14656,0.254,551
2021-09-10T09:04:05,42.805,6.029,CST-1368DR,5234,7160,14653,0.255,551
2021-09-10T09:07:07,42.805,6.029,CST-1368DR,5234,7161,14654,0.254,551
2021-09-10T09:10:08,42.805,6.029,CST-1368DR,5234,7160,14654,0.254,551
2021-09-10T09:13:10,42.805,6.029,CST-1368DR,5234,7161,14655,0.254,551
2021-09-10T09:16:12,42.805,6.029,CST-1368DR,5234,7161,14655,0.254,551
2021-09-10T09:19:13,42.805,6.029,CST-1368DR,5234,7162,14656,0.254,551
2021-09-10T09:22:15,42.805,6.029,CST-1368DR,5234,7160,14652,0.255,551
2021-09-10T09:25:16,42.805,6.029,CST-1368DR,5234,7161,14656,0.254,551
2021-09-10T09:28:18,42.805,6.029,CST-1368DR,5234,7161,14655,0.254,551
2021-09-10T09:31:19,42.805,6.029,CST-1368DR,5234,7161,14656,0.254,551
2021-09-10T09:34:21,42.805,6.029,CST-1368DR,5234,7161,14654,0.254,551
2021-09-10T09:37:23,42.805,6.029,CST-1368DR,5234,7161,14656,0.254,551
2021-09-10T09:40:24,42.805,6.029,CST-1368DR,5234,7160,14653,0.255,551
2021-09-10T09:43:26,42.805,6.029,CST-1368DR,5234,7161,14656,0.254,551
2021-09-10T09:46:27,42.805,6.029,CST-1368DR,5234,7160,14653,0.255,551
2021-09-10T09:49:29,42.805,6.029,CST-1368DR,5234,7158,14649,0.256,551
2021-09-10T09:52:30,42.805,6.029,CST-1368DR,5234,7161,14656,0.254,551
2021-09-10T09:55:32,42.805,6.029,CST-1368DR,5234,7161,14654,0.254,551
2021-09-10T09:58:34,42.805,6.029,CST-1368DR,5234,7160,14654,0.254,551
2021-09-10T10:01:35,42.805,6.029,CST-1368DR,5234,7161,14655,0.254,551
2021-09-10T10:04:37,42.805,6.029,CST-1368DR,5234,7161,14654,0.254,551
2021-09-10T10:07:38,42.805,6.029,CST-1368DR,5234,7156,14644,0.257,551
2021-09-10T10:10:40,42.805,6.029,CST-1368DR,5234,7160,14653,0.255,551
2021-09-10T10:13:42,42.805,6.029,CST-1368DR,5234,7160,14653,0.255,551
2021-09-10T10:16:43,42.805,6.029,CST-1368DR,5234,7158,14648,0.256,551
2021-09-10T10:19:45,42.805,6.029,CST-1368DR,5234,7160,14654,0.254,551
2021-09-10T10:22:46,42.805,6.029,CST-1368DR,5234,7161,14655,0.254,551
2021-09-10T10:25:48,42.805,6.029,CST-1368DR,5234,7160,14653,0.255,551
2021-09-10T10:28:49,42.805,6.029,CST-1368DR,5234,7160,14654,0.254,551
2021-09-10T10:31:51,42.805,6.029,CST-1368DR,5234,7160,14653,0.255,551
2021-09-10T10:34:53,42.805,6.029,CST-1368DR,5234,7159,14650,0.255,551
2021-09-10T10:37:54,42.805,6.029,CST-1368DR,5234,7159,14651,0.255,551
2021-09-10T10:40:56,42.805,6.029,CST-1368DR,5234,7160,14652,0.255,551
2021-09-10T10:43:57,42.805,6.029,CST-1368DR,5234,7158,14649,0.256,551
2021-09-10T10:46:59,42.805,6.029,CST-1368DR,5234,7160,14653,0.255,551
2021-09-10T10:50:01,42.805,6.029,CST-1368DR,5234,7159,14650,0.255,551
2021-09-10T10:53:02,42.805,6.029,CST-1368DR,5234,7160,14652,0.255,551
2021-09-10T10:56:04,42.805,6.029,CST-1368DR,5234,7159,14650,0.255,551
2021-09-10T10:59:05,42.805,6.029,CST-1368DR,5234,7160,14653,0.255,551
2021-09-10T11:02:07,42.805,6.029,CST-1368DR,5234,7158,14649,0.256,551
2021-09-10T11:05:08,42.805,6.029,CST-1368DR,5234,7160,14653,0.255,551
2021-09-10T11:08:10,42.805,6.029,CST-1368DR,5234,7159,14652,0.255,551
2021-09-10T11:11:12,42.805,6.029,CST-1368DR,5234,7159,14650,0.255,551
2021-09-10T11:14:13,42.805,6.029,CST-1368DR,5234,7160,14653,0.255,551
2021-09-10T11:17:15,42.805,6.029,CST-1368DR,5234,7160,14653,0.255,551
2021-09-10T11:20:16,42.805,6.029,CST-1368DR,5234,7160,14652,0.255,551
2021-09-10T11:23:18,42.805,6.029,CST-1368DR,5234,7160,14652,0.255,550
2021-09-10T11:26:19,42.805,6.029,CST-1368DR,5234,7160,14652,0.255,551
2021-09-10T11:29:21,42.805,6.029,CST-1368DR,5234,7160,14653,0.255,551
2021-09-10T11:32:23,42.805,6.029,CST-1368DR,5234,7159,14652,0.255,551
2021-09-10T11:35:24,42.805,6.029,CST-1368DR,5234,7158,14649,0.256,551
2021-09-10T11:38:26,42.805,6.029,CST-1368DR,5234,7160,14652,0.255,551
2021-09-10T11:41:27,42.805,6.029,CST-1368DR,5234,7159,14651,0.255,551
2021-09-10T11:44:29,42.805,6.029,CST-1368DR,5234,7159,14650,0.255,551
2021-09-10T11:47:31,42.805,6.029,CST-1368DR,5234,7160,14652,0.255,551
2021-09-10T11:50:32,42.805,6.029,CST-1368DR,5234,7159,14651,0.255,551
2021-09-10T11:53:34,42.805,6.029,CST-1368DR,5234,7159,14651,0.255,551
2021-09-10T11:56:35,42.805,6.029,CST-1368DR,5234,7160,14653,0.255,551
2021-09-10T11:59:37,42.805,6.029,CST-1368DR,5234,7160,14652,0.255,551
2021-09-10T12:02:38,42.805,6.029,CST-1368DR,5234,7159,14652,0.255,551
2021-09-10T12:05:40,42.805,6.029,CST-1368DR,5234,7159,14652,0.255,551
2021-09-10T12:08:42,42.805,6.029,CST-1368DR,5234,7159,14652,0.255,551
2021-09-10T12:11:43,42.805,6.029,CST-1368DR,5234,7159,14650,0.255,551
2021-09-10T12:14:45,42.805,6.029,CST-1368DR,5234,7159,14652,0.255,551
2021-09-10T12:17:46,42.805,6.029,CST-1368DR,5234,7160,14653,0.255,551
2021-09-10T12:20:48,42.805,6.029,CST-1368DR,5234,7157,14647,0.256,551
2021-09-10T12:23:50,42.805,6.029,CST-1368DR,5234,7159,14651,0.255,551
2021-09-10T12:26:51,42.805,6.029,CST-1368DR,5234,7159,14650,0.255,551
2021-09-10T12:29:53,42.805,6.029,CST-1368DR,5233,7152,14639,0.258,550
2021-09-10T12:32:54,42.805,6.029,CST-1368DR,5234,7159,14651,0.255,551
2021-09-10T12:35:56,42.805,6.029,CST-1368DR,5234,7159,14651,0.255,551
2021-09-10T12:38:57,42.805,6.029,CST-1368DR,5233,7156,14647,0.256,551
2021-09-10T12:41:59,42.805,6.029,CST-1368DR,5234,7159,14650,0.255,551
2021-09-10T12:45:01,42.805,6.029,CST-1368DR,5234,7159,14650,0.255,551
2021-09-10T12:48:02,42.805,6.029,CST-1368DR,5233,7160,14655,0.254,551
2021-09-10T12:51:04,42.805,6.029,CST-1368DR,5234,7159,14652,0.255,551
2021-09-10T12:54:05,42.805,6.029,CST-1368DR,5233,7159,14654,0.254,551
2021-09-10T12:57:07,42.805,6.029,CST-1368DR,5233,7160,14655,0.254,551
2021-09-10T13:00:08,42.805,6.029,CST-1368DR,5233,7160,14655,0.254,551
2021-09-10T13:03:10,42.805,6.029,CST-1368DR,5233,7156,14647,0.256,551
2021-09-10T13:06:12,42.805,6.029,CST-1368DR,5233,7159,14653,0.255,551
2021-09-10T13:09:13,42.805,6.029,CST-1368DR,5233,7160,14655,0.254,551
2021-09-10T13:12:15,42.805,6.029,CST-1368DR,5233,7159,14654,0.254,551
2021-09-10T13:15:16,42.805,6.029,CST-1368DR,5233,7160,14655,0.254,551
2021-09-10T13:18:18,42.805,6.029,CST-1368DR,5234,7159,14652,0.255,551
2021-09-10T13:21:20,42.805,6.029,CST-1368DR,5233,7160,14655,0.254,551
2021-09-10T13:24:21,42.805,6.029,CST-1368DR,5233,7159,14653,0.255,551
2021-09-10T13:27:23,42.805,6.029,CST-1368DR,5233,7159,14654,0.254,551
2021-09-10T13:30:24,42.805,6.029,CST-1368DR,5233,7159,14654,0.254,551
2021-09-10T13:33:26,42.805,6.029,CST-1368DR,5234,7159,14651,0.255,551
2021-09-10T13:36:27,42.805,6.029,CST-1368DR,5234,7159,14650,0.255,551
2021-09-10T13:39:29,42.805,6.029,CST-1368DR,5233,7158,14652,0.255,551
2021-09-10T13:42:31,42.805,6.029,CST-1368DR,5233,7159,14653,0.255,551
2021-09-10T13:45:32,42.805,6.029,CST-1368DR,5233,7159,14654,0.254,550
2021-09-10T13:48:34,42.805,6.029,CST-1368DR,5233,7158,14652,0.255,551
2021-09-10T13:51:35,42.805,6.029,CST-1368DR,5233,7158,14652,0.255,551
2021-09-10T13:54:37,42.805,6.029,CST-1368DR,5233,7159,14653,0.255,551
2021-09-10T13:57:39,42.805,6.029,CST-1368DR,5233,7159,14653,0.255,551
2021-09-10T14:00:40,42.805,6.029,CST-1368DR,5233,7159,14653,0.255,551
2021-09-10T14:03:42,42.805,6.029,CST-1368DR,5233,7159,14654,0.254,551
2021-09-10T14:06:43,42.805,6.029,CST-1368DR,5233,7159,14653,0.255,551
2021-09-10T14:09:45,42.805,6.029,CST-1368DR,5233,7158,14652,0.255,551
2021-09-10T14:12:46,42.805,6.029,CST-1368DR,5233,7159,14653,0.255,551
2021-09-10T14:15:48,42.805,6.029,CST-1368DR,5233,7160,14655,0.254,551
2021-09-10T14:18:50,42.805,6.029,CST-1368DR,5233,7160,14655,0.254,551
2021-09-10T14:21:51,42.805,6.029,CST-1368DR,5233,7160,14655,0.254,551
2021-09-10T14:24:53,42.805,6.029,CST-1368DR,5233,7159,14653,0.255,551
2021-09-10T14:27:54,42.805,6.029,CST-1368DR,5233,7159,14654,0.254,551
2021-09-10T14:30:56,42.805,6.029,CST-1368DR,5233,7159,14653,0.255,551
2021-09-10T14:33:57,42.805,6.029,CST-1368DR,5233,7160,14655,0.254,551
2021-09-10T14:36:59,42.805,6.029,CST-1368DR,5233,7159,14654,0.254,551
2021-09-10T14:40:01,42.805,6.029,CST-1368DR,5233,7159,14653,0.255,551
2021-09-10T14:43:02,42.805,6.029,CST-1368DR,5233,7159,14654,0.254,551
2021-09-10T14:46:04,42.805,6.029,CST-1368DR,5233,7159,14653,0.255,551
2021-09-10T14:49:05,42.805,6.029,CST-1368DR,5233,7159,14654,0.254,551
2021-09-10T14:52:07,42.805,6.029,CST-1368DR,5233,7159,14654,0.254,551
2021-09-10T14:55:09,42.805,6.029,CST-1368DR,5233,7159,14654,0.254,551
2021-09-10T14:58:10,42.805,6.029,CST-1368DR,5233,7160,14655,0.254,551
2021-09-10T15:01:12,42.805,6.029,CST-1368DR,5233,7159,14654,0.254,551
2021-09-10T15:04:13,42.805,6.029,CST-1368DR,5233,7159,14654,0.254,551
2021-09-10T15:07:15,42.805,6.029,CST-1368DR,5233,7158,14652,0.255,551
2021-09-10T15:10:16,42.805,6.029,CST-1368DR,5233,7158,14651,0.255,551
2021-09-10T15:13:18,42.805,6.029,CST-1368DR,5233,7159,14653,0.255,551
2021-09-10T15:16:20,42.805,6.029,CST-1368DR,5233,7159,14653,0.255,551
2021-09-10T15:19:21,42.805,6.029,CST-1368DR,5233,7157,14650,0.255,551
2021-09-10T15:22:23,42.805,6.029,CST-1368DR,5233,7159,14654,0.254,551
2021-09-10T15:25:24,42.805,6.029,CST-1368DR,5233,7158,14652,0.255,550
2021-09-10T15:28:26,42.805,6.029,CST-1368DR,5233,7159,14654,0.254,551
2021-09-10T15:31:28,42.805,6.029,CST-1368DR,5233,7159,14654,0.254,551
2021-09-10T15:34:29,42.805,6.029,CST-1368DR,5233,7157,14650,0.255,551
2021-09-10T15:37:31,42.805,6.029,CST-1368DR,5233,7160,14655,0.254,551
2021-09-10T15:40:32,42.805,6.029,CST-1368DR,5233,7158,14652,0.255,551
2021-09-10T15:43:34,42.805,6.029,CST-1368DR,5233,7160,14655,0.254,551
2021-09-10T15:46:35,42.805,6.029,CST-1368DR,5233,7159,14653,0.255,551
2021-09-10T15:49:37,42.805,6.029,CST-1368DR,5233,7158,14652,0.255,551
2021-09-10T15:52:39,42.805,6.029,CST-1368DR,5233,7159,14654,0.254,551
2021-09-10T15:55:40,42.805,6.029,CST-1368DR,5233,7157,14650,0.255,550
2021-09-10T15:58:42,42.805,6.029,CST-1368DR,5233,7159,14654,0.254,551
2021-09-10T16:01:43,42.805,6.029,CST-1368DR,5233,7159,14653,0.255,551
2021-09-10T16:04:45,42.805,6.029,CST-1368DR,5233,7158,14652,0.255,551
2021-09-10T16:07:46,42.805,6.029,CST-1368DR,5233,7159,14654,0.254,551
2021-09-10T16:10:48,42.805,6.029,CST-1368DR,5233,7155,14645,0.257,551
2021-09-10T16:13:50,42.805,6.029,CST-1368DR,5233,7159,14654,0.254,551
2021-09-10T16:16:51,42.805,6.029,CST-1368DR,5233,7155,14645,0.257,551
2021-09-10T16:19:53,42.805,6.029,CST-1368DR,5233,7158,14651,0.255,551
2021-09-10T16:22:54,42.805,6.029,CST-1368DR,5233,7159,14653,0.255,551
2021-09-10T16:25:56,42.805,6.029,CST-1368DR,5233,7158,14651,0.255,551
2021-09-10T16:28:58,42.805,6.029,CST-1368DR,5233,7158,14651,0.255,551
2021-09-10T16:31:59,42.805,6.029,CST-1368DR,5233,7158,14652,0.255,551
2021-09-10T16:35:01,42.805,6.029,CST-1368DR,5233,7158,14651,0.255,551
2021-09-10T16:38:02,42.805,6.029,CST-1368DR,5233,7157,14650,0.255,551
2021-09-10T16:41:04,42.805,6.029,CST-1368DR,5233,7157,14650,0.255,551
2021-09-10T16:44:05,42.805,6.029,CST-1368DR,5233,7158,14652,0.255,551
2021-09-10T16:47:07,42.805,6.029,CST-1368DR,5233,7159,14653,0.255,551
2021-09-10T16:50:09,42.805,6.029,CST-1368DR,5233,7158,14652,0.255,551
2021-09-10T16:53:10,42.805,6.029,CST-1368DR,5233,7157,14649,0.256,551